Regional Weather Roundup
Issued by NWS

Home | Current Version | Previous Version | Graphics & Text | Print | Product List | Glossary On
Versions: 1 2 3 4 5 6 7 8 9 10 11 12 13 14 15 16 17 18 19 20 21 22 23 24 25 26 27
000
ASUS45 KPSR 091010
RWRAZ

ARIZONA HOURLY REGIONAL WEATHER ROUNDUP
NATIONAL WEATHER SERVICE PHOENIX AZ
300 AM MST FRI DEC 09 2016

NOTE: FAIR INDICATES FEW OR NO CLOUDS BELOW 12,000 FEET WITH NO
SIGNIFICANT WEATHER AND/OR OBSTRUCTIONS TO VISIBILITY.

AZZ001>003-036-091100-
NORTHWEST ARIZONA

CITY           SKY/WX    TMP DP  RH WIND       PRES   REMARKS
BULLHEAD CITY  MOCLDY    52  14  22 CALM      30.26S
KINGMAN        CLOUDY    45  18  34 CALM      30.27R
$$

AZZ004>008-015-016-018-091100-
NORTH CENTRAL ARIZONA

CITY           SKY/WX    TMP DP  RH WIND       PRES   REMARKS
GRAND CANYON   PTCLDY    25  23  92 NE3       30.31R
WILLIAMS       CLEAR     28  27  93 SE8       30.30R WCI  20
PRESCOTT       CLEAR     32  29  88 S5        30.29R WCI  27
FLAGSTAFF      CLEAR     25  23  92 CALM      30.30R
PAYSON         CLEAR     41  32  70 CALM      30.32F
PAGE           CLEAR     31   8  38 CALM      30.28S
$$

AZZ009>014-017-091100-
NORTHEAST ARIZONA

CITY           SKY/WX    TMP DP  RH WIND       PRES   REMARKS
WINSLOW        CLEAR     26  18  71 E3        30.28F
SAINT JOHNS    CLEAR     23  19  85 CALM      30.29R
WINDOW ROCK    CLEAR     21  16  81 CALM      30.30S
SHOW LOW       CLEAR     32  27  80 S12       30.31S WCI  23
$$

AZZ023-091100-
GREATER PHOENIX AREA

CITY           SKY/WX    TMP DP  RH WIND       PRES   REMARKS
PHOENIX        CLEAR     50  40  68 E6        30.21R
BUCKEYE          N/A     45  37  76 N6        30.24R
LUKE AFB       CLEAR     46  38  72 NW7       30.21R
DEER VALLEY    CLEAR     47  38  71 CALM      30.21S
SCOTTSDALE     CLEAR     49  41  74 NE5       30.22S
MESA-GATEWAY   CLEAR     45  36  70 E7        30.23S
$$

AZZ027-028-091100-
SOUTHWEST MARICOPA COUNTY AND PINAL COUNTY

CITY           SKY/WX    TMP DP  RH WIND       PRES   REMARKS
CASA GRANDE    NOT AVBL
GILA BEND      FAIR      46  33  60 SE3       30.21S
$$

AZZ503-504-507>509-091100-
SOUTHEAST ARIZONA

CITY           SKY/WX    TMP DP  RH WIND       PRES   REMARKS
TUCSON         CLEAR     42  31  64 SE10      30.24F
DAVIS-MONTHAN  CLEAR     42  31  65 SE8       30.22F
NOGALES        CLEAR     36  27  69 E5        30.24F WCI  32
SIERRA VISTA   CLEAR     39  30  68 W5        30.28S
DOUGLAS        CLEAR     32  29  88 N7        30.29S WCI  26
SAFFORD        CLEAR     41  31  67 SE10      30.32F
$$

AZZ020-021-025-026-031-091100-
SOUTHWEST ARIZONA

CITY           SKY/WX    TMP DP  RH WIND       PRES   REMARKS
YUMA           MOCLDY    50  22  33 N6        30.21S
$$

CAZ031-033-041-043-047-048-061-091100-
SOUTHERN CALIFORNIA

CITY           SKY/WX    TMP DP  RH WIND       PRES   REMARKS
DOWNTOWN L.A.  CLEAR     52  49  89 CALM      30.26R
L.A. AIRPORT   MOCLDY    55  52  89 E3        30.26S
SAN DIEGO      MOCLDY    54  50  86 CALM      30.28R
BURBANK        PTCLDY    51  45  79 N3        30.26R
ONTARIO        PTCLDY    49  42  77 N3        30.26R
RIVERSIDE      CLEAR     48  44  86 CALM      30.26S
PALM SPRINGS   CLEAR     48  34  58 CALM      30.23S
EL CENTRO NAS  CLEAR     45  22  40 W6        30.23S
IMPERIAL       PTCLDY    46  28  49 W5        30.21S
BLYTHE         PTCLDY    46  12  25 CALM      30.23S
NEEDLES        MOCLDY    53  12  19 NW6       30.26R
$$

NVZ020-UTZ003-091100-
SOUTHERN NEVADA-UTAH

CITY           SKY/WX    TMP DP  RH WIND       PRES   REMARKS
LAS VEGAS      CLOUDY    47  14  26 CALM      30.28R
SALT LAKE CITY FLURRIES  29  24  82 W10       30.20R WCI  20
$$

NMZ009-TXZ055-091100-
NEW MEXICO-WEST TEXAS

CITY           SKY/WX    TMP DP  RH WIND       PRES   REMARKS
ALBUQUERQUE    CLOUDY    27  18  69 N3        30.36S
EL PASO        MOCLDY    32  24  72 CALM      30.43F
$$


........................KEY........................
SKY/WX - SKY CONDITION/WEATHER
TMP    - TEMPERATURE IN FAHRENHEIT
DP     - DEW POINT IN FAHRENHEIT
RH     - RELATIVE HUMIDITY IN PERCENT
WIND   - DIRECTION AND SPEED IN MILES PER HOUR (MPH)
VRB    - VARIABLE WIND DIRECTION
PRES   - MEAN SEA LEVEL PRESSURE IN INCHES OF MERCURY
         F - FALLING PRESSURE   R - RISING PRESSURE
         S - STEADY PRESSURE
VSB    - VISIBILITY IN MILES
HX     - HEAT INDEX IN FAHRENHEIT
WCI    - WIND CHILL INDEX IN FAHRENHEIT
TC     - TEMPERATURE IN CELSIUS WHICH IS ALSO KNOWN AS
         TEMPERATURE IN CENTIGRADE
AFB    - AIR FORCE BASE
         LUKE AFB IS LUKE AIR FORCE BASE
         DAVIS-MONTHAN IS DAVIS-MONTHAN AIR FORCE BASE
NAS    - NAVAL AIR STATION
         EL CENTRO NAS IS EL CENTRO NAVAL AIR STATION
N/A    - NOT AVAILABLE





USA.gov is the U.S. government's official web portal to all federal, state and local government web resources and services.